ZS1OSS-13 Weather Reports


time (UTC)temp
C
wind
direction
speed
KPH
gust
KPH
rain 1hr
cm
rain 24hr
cm
rain mn
cm
humidity
%
barometer
mb
20260505225803 11 172 0.0 0.0 0.00 0.00 0.00 91 1017.3
20260505225301 11 172 0.0 0.0 0.00 0.00 0.00 91 1017.3
20260505224755 11 172 0.0 0.0 0.00 0.00 0.00 91 1017.4
20260505224254 11 172 0.0 0.0 0.00 0.00 0.00 91 1017.3
20260505223751 12 172 0.0 0.0 0.00 0.00 0.00 91 1017.5
20260505223247 12 172 0.0 0.0 0.00 0.00 0.00 91 1017.5
20260505222743 12 170 0.0 0.0 0.00 0.00 0.00 91 1017.6
20260505222240 12 172 0.0 0.0 0.00 0.00 0.00 90 1017.5
20260505221737 12 171 0.0 0.0 0.00 0.00 0.00 90 1017.4
20260505221233 12 172 0.0 0.0 0.00 0.00 0.00 90 1017.6
20260505220730 12 170 0.0 0.0 0.00 0.00 0.00 90 1017.6
20260505220228 12 170 0.0 0.0 0.00 0.00 0.00 89 1017.8
20260505215726 12 172 0.0 0.0 0.00 0.08 0.08 89 1017.6
20260505215223 12 172 0.0 0.0 0.00 0.08 0.08 89 1017.6
20260505214721 12 175 0.0 0.0 0.00 0.08 0.08 89 1017.5
20260505214218 12 172 0.0 0.0 0.00 0.08 0.08 89 1017.8
20260505213715 12 172 0.0 0.0 0.00 0.08 0.08 89 1017.5
20260505213212 12 171 0.0 0.0 0.00 0.08 0.08 89 1017.9
20260505212708 12 172 0.0 0.0 0.00 0.08 0.08 88 1017.7
20260505212206 12 171 0.0 0.0 0.00 0.08 0.08 88 1017.7
20260505211703 12 171 0.0 0.0 0.00 0.08 0.08 88 1017.5
20260505211200 12 174 0.0 0.0 0.00 0.08 0.08 87 1017.6
20260505210656 12 173 0.0 0.0 0.00 0.08 0.08 87 1017.4
20260505210153 12 174 0.0 0.0 0.00 0.08 0.08 86 1017.2
20260505205651 13 172 0.0 0.0 0.00 0.08 0.08 86 1017.4
20260505205149 13 171 0.0 0.0 0.00 0.08 0.08 86 1017.2
20260505204645 13 170 0.0 0.0 0.00 0.08 0.08 86 1017.1
20260505204143 13 172 0.0 0.0 0.00 0.08 0.08 86 1017.1
20260505203640 13 171 0.0 0.0 0.00 0.08 0.08 86 1017.4
20260505203137 13 177 0.0 0.0 0.00 0.08 0.08 86 1017.1
20260505202632 13 175 0.0 0.0 0.00 0.08 0.08 86 1017.4
20260505202128 13 174 0.0 0.0 0.00 0.08 0.08 86 1017.5
20260505201625 13 174 0.0 0.0 0.00 0.08 0.08 85 1017.5
20260505201124 13 174 0.0 0.0 0.00 0.08 0.08 85 1017.2
20260505200621 13 172 0.0 0.0 0.00 0.08 0.08 85 1017.4
20260505200118 13 172 0.0 0.0 0.00 0.08 0.08 85 1017.4
20260505195614 13 175 0.0 0.0 0.00 0.08 0.08 85 1017.5
20260505195111 13 176 0.0 0.0 0.00 0.08 0.08 84 1017.4
20260505194608 13 176 0.0 0.0 0.00 0.08 0.08 84 1017.4
20260505194104 13 176 4.8 4.8 0.00 0.08 0.08 84 1017.3
20260505193601 13 177 0.0 1.6 0.00 0.08 0.08 85 1017.4
20260505193058 13 175 0.0 0.0 0.00 0.08 0.08 84 1017.2
20260505192557 13 182 3.2 3.2 0.00 0.08 0.08 84 1017.5
20260505192053 13 179 1.6 1.6 0.00 0.08 0.08 84 1017.3
20260505191546 13 184 1.6 1.6 0.00 0.08 0.08 84 1017.5
20260505191044 14 181 1.6 1.6 0.00 0.08 0.08 84 1017.6
20260505190538 14 181 1.6 4.8 0.00 0.08 0.08 84 1017.4
20260505190034 14 174 1.6 3.2 0.00 0.08 0.08 83 1017.5
20260505185531 14 174 0.0 1.6 0.00 0.08 0.08 83 1017.4
20260505185028 14 173 1.6 1.6 0.00 0.08 0.08 83 1017.0
20260505184524 14 168 1.6 3.2 0.00 0.08 0.08 83 1017.3
20260505184021 14 173 3.2 3.2 0.00 0.08 0.08 83 1017.1
20260505183512 14 185 3.2 3.2 0.00 0.08 0.08 82 1017.1
20260505183009 14 178 3.2 4.8 0.00 0.08 0.08 82 1017.0
20260505182506 14 172 4.8 4.8 0.00 0.08 0.08 82 1016.9
20260505182002 14 178 1.6 4.8 0.00 0.08 0.08 82 1016.6
20260505181459 14 171 1.6 1.6 0.00 0.08 0.08 82 1016.7
20260505180956 14 185 1.6 3.2 0.00 0.08 0.08 82 1016.5
20260505180452 14 183 4.8 9.7 0.00 0.08 0.08 82 1016.6
20260505175949 14 183 0.0 0.0 0.00 0.08 0.08 82 1016.6
20260505175445 14 175 0.0 0.0 0.00 0.08 0.08 81 1016.5
20260505174942 14 177 1.6 1.6 0.00 0.08 0.08 81 1016.5
20260505174439 15 173 0.0 0.0 0.00 0.08 0.08 81 1016.3
20260505173935 15 185 1.6 1.6 0.00 0.08 0.08 81 1016.5
20260505173432 15 185 1.6 3.2 0.00 0.08 0.08 81 1016.4
20260505172929 15 182 0.0 0.0 0.00 0.08 0.08 81 1016.1
20260505172428 15 178 0.0 0.0 0.00 0.08 0.08 80 1016.1
20260505171926 15 178 0.0 0.0 0.00 0.08 0.08 80 1016.1
20260505171424 15 179 0.0 0.0 0.00 0.08 0.08 79 1016.2
20260505170920 15 179 0.0 0.0 0.00 0.08 0.08 79 1016.3
20260505170417 15 182 1.6 1.6 0.00 0.08 0.08 79 1016.2
20260505165912 15 173 0.0 1.6 0.00 0.08 0.08 78 1015.7
20260505165409 15 178 0.0 1.6 0.00 0.08 0.08 77 1015.6
20260505164904 15 180 0.0 0.0 0.00 0.08 0.08 77 1015.8
20260505164401 15 183 3.2 3.2 0.00 0.08 0.08 77 1015.6
20260505163859 15 197 3.2 3.2 0.00 0.08 0.08 76 1015.6
20260505163358 16 191 3.2 4.8 0.00 0.08 0.08 76 1015.6
20260505162856 16 182 0.0 1.6 0.00 0.08 0.08 75 1015.7
20260505162351 16 179 1.6 1.6 0.00 0.08 0.08 74 1015.8
20260505161849 16 175 1.6 1.6 0.00 0.08 0.08 73 1015.4
20260505161346 16 170 3.2 3.2 0.00 0.08 0.08 73 1015.5
20260505160843 16 180 0.0 1.6 0.00 0.08 0.08 72 1015.3
20260505160341 16 195 1.6 1.6 0.00 0.08 0.08 71 1015.4
20260505153320 17 198 3.2 4.8 0.00 0.08 0.08 67 1015.1
20260505152816 17 232 3.2 3.2 0.00 0.08 0.08 66 1014.9
20260505152314 17 227 3.2 4.8 0.00 0.08 0.08 66 1014.8
20260505151808 17 186 1.6 3.2 0.00 0.08 0.08 65 1014.6
20260505151305 17 177 1.6 1.6 0.00 0.08 0.08 64 1015.0
20260505150802 17 213 1.6 3.2 0.00 0.08 0.08 64 1015.0
20260505150259 18 217 4.8 4.8 0.00 0.08 0.08 63 1014.7
20260505140223 17 176 0.0 0.0 0.00 0.08 0.08 63 1014.2
20260505130147 18 269 3.2 4.8 0.00 0.08 0.08 70 1014.1
20260505124637 20 343 1.6 3.2 0.00 0.08 0.08 65 1014.1
20260505124134 20 354 8.0 9.7 0.00 0.08 0.08 61 1013.9
20260505123629 20 228 0.0 1.6 0.00 0.08 0.08 63 1014.1
20260505123126 20 265 0.0 1.6 0.00 0.08 0.08 62 1014.2
20260505122623 20 32 0.0 1.6 0.00 0.08 0.08 61 1014.3
20260505122121 20 333 3.2 8.0 0.00 0.08 0.08 60 1014.0
20260505121617 19 13 0.0 0.0 0.00 0.08 0.08 63 1014.2
20260505121114 20 23 1.6 3.2 0.00 0.08 0.08 63 1014.2
20260505120610 20 261 1.6 3.2 0.00 0.08 0.08 59 1014.3
20260505120106 20 348 4.8 11.3 0.00 0.08 0.08 61 1014.0
20260505115600 21 272 0.0 1.6 0.00 0.08 0.08 59 1014.3
20260505115058 20 6 0.0 0.0 0.00 0.08 0.08 59 1014.2
20260505114555 20 0 6.4 9.7 0.00 0.08 0.08 58 1014.2
20260505114051 20 214 0.0 1.6 0.00 0.08 0.08 59 1014.4
20260505113547 20 223 0.0 0.0 0.00 0.08 0.08 59 1014.3
20260505113044 20 247 3.2 4.8 0.00 0.08 0.08 59 1014.6
20260505112540 20 3 0.0 1.6 0.00 0.08 0.08 60 1014.6
20260505112039 20 207 0.0 1.6 0.00 0.08 0.08 63 1014.7
20260505111532 18 267 0.0 1.6 0.00 0.08 0.08 64 1014.7
20260505111029 19 261 4.8 4.8 0.00 0.08 0.08 61 1014.7
20260505110525 18 354 0.0 0.0 0.00 0.08 0.08 65 1014.8
20260505101958 19 280 1.6 3.2 0.00 0.08 0.08 65 1015.4
20260505101455 18 58 0.0 0.0 0.00 0.08 0.08 66 1015.3
20260505100952 19 30 0.0 1.6 0.00 0.08 0.08 66 1015.3
20260505100450 19 349 0.0 0.0 0.00 0.08 0.08 66 1015.2
20260505095945 18 206 3.2 4.8 0.00 0.08 0.08 68 1015.5
20260505095442 18 33 0.0 0.0 0.00 0.08 0.08 67 1015.3
20260505094938 19 13 0.0 0.0 0.00 0.08 0.08 66 1015.4
20260505094435 18 0 1.6 3.2 0.00 0.08 0.08 67 1015.6
20260505093931 18 51 3.2 3.2 0.00 0.08 0.08 67 1015.3
20260505093428 18 321 0.0 1.6 0.00 0.08 0.08 69 1015.5
20260505092925 18 263 0.0 0.0 0.00 0.08 0.08 70 1015.2
20260505092423 17 55 3.2 3.2 0.00 0.08 0.08 70 1015.5
20260505091920 17 43 4.8 8.0 0.00 0.08 0.08 69 1015.4
20260505091418 18 324 3.2 4.8 0.00 0.08 0.08 69 1015.6
20260505090916 18 55 0.0 0.0 0.00 0.08 0.08 69 1015.6
20260505090414 18 199 0.0 1.6 0.00 0.08 0.08 70 1015.5
20260505085911 17 6 1.6 1.6 0.00 0.08 0.08 72 1015.5
20260505085409 17 340 1.6 3.2 0.00 0.08 0.08 71 1015.6
20260505084907 18 298 1.6 3.2 0.00 0.08 0.08 70 1015.4
20260505084405 17 238 0.0 1.6 0.00 0.08 0.08 70 1015.6
20260505083902 17 46 0.0 1.6 0.00 0.08 0.08 72 1015.4
20260505083400 17 9 1.6 3.2 0.00 0.08 0.08 72 1015.5
20260505082855 17 6 0.0 0.0 0.00 0.08 0.08 73 1015.6
20260505082352 16 51 0.0 0.0 0.00 0.08 0.08 76 1015.7
20260505081849 16 56 1.6 3.2 0.00 0.08 0.08 77 1015.5
20260505081345 16 291 1.6 3.2 0.00 0.08 0.08 79 1015.7
20260505080842 16 35 1.6 1.6 0.00 0.08 0.08 82 1015.5
20260505080338 15 15 0.0 0.0 0.00 0.08 0.08 86 1015.4
20260505075833 15 349 1.6 1.6 0.00 0.08 0.08 89 1015.6
20260505075331 15 25 0.0 0.0 0.00 0.08 0.08 92 1015.2
20260505074828 15 350 1.6 3.2 0.00 0.08 0.08 93 1015.3
20260505074325 14 325 0.0 1.6 0.00 0.08 0.08 94 1015.6
20260505073822 14 344 1.6 3.2 0.00 0.08 0.08 95 1015.6
20260505073320 13 19 1.6 1.6 0.00 0.08 0.08 96 1015.6
20260505072817 13 52 0.0 0.0 0.00 0.08 0.08 96 1015.4
20260505072313 13 52 0.0 0.0 0.00 0.08 0.08 97 1015.2
20260505071809 13 184 0.0 0.0 0.00 0.08 0.08 97 1015.5
20260505071306 13 191 0.0 0.0 0.00 0.08 0.08 96 1015.5
20260505070804 12 191 0.0 0.0 0.18 0.08 0.08 97 1015.2
20260505070300 12 191 0.0 0.0 0.18 0.08 0.08 97 1015.4
20260505065755 12 191 0.0 0.0 0.00 0.05 0.05 97 1015.2
20260505065252 13 191 0.0 0.0 0.00 0.05 0.05 97 1015.0
20260505064749 12 197 0.0 0.0 0.00 0.05 0.05 97 1015.0
20260505064247 12 197 0.0 0.0 0.00 0.05 0.05 97 1015.0
20260505063744 11 197 0.0 0.0 0.00 0.05 0.05 97 1014.9
20260505063240 11 189 0.0 0.0 0.00 0.05 0.05 97 1015.0
20260505062737 11 109 0.0 0.0 0.00 0.05 0.05 97 1014.7
20260505062234 11 109 0.0 0.0 0.00 0.05 0.05 97 1014.8
20260505061731 10 109 0.0 0.0 0.00 0.05 0.05 97 1014.6
20260505061229 10 109 0.0 0.0 0.00 0.05 0.05 97 1014.6
20260505060726 10 109 0.0 0.0 0.00 0.05 0.05 97 1014.3
20260505060224 10 118 1.6 3.2 0.00 0.05 0.05 97 1014.4
20260505055718 10 174 0.0 0.0 0.00 0.05 0.05 97 1014.3
20260505055215 10 174 0.0 0.0 0.00 0.05 0.05 97 1014.5
20260505054713 10 175 0.0 0.0 0.00 0.05 0.05 97 1014.6
20260505054210 10 174 0.0 0.0 0.00 0.05 0.05 97 1014.6
20260505053709 10 174 0.0 0.0 0.00 0.05 0.05 97 1014.6
20260505053204 10 171 0.0 0.0 0.00 0.05 0.05 97 1014.3
20260505052702 10 170 0.0 0.0 0.00 0.05 0.05 97 1014.5
20260505052158 10 165 0.0 0.0 0.00 0.05 0.05 97 1014.6
20260505051656 10 169 0.0 0.0 0.00 0.05 0.05 97 1014.4
20260505051154 10 175 0.0 0.0 0.00 0.05 0.05 97 1014.2
20260505050651 10 171 0.0 0.0 0.00 0.05 0.05 97 1014.0
20260505050149 10 170 0.0 0.0 0.00 0.05 0.05 97 1014.1
20260505041619 11 171 0.0 0.0 0.00 0.05 0.05 96 1013.8
20260505041116 11 174 0.0 0.0 0.00 0.05 0.05 96 1013.8
20260505040613 11 174 0.0 0.0 0.00 0.05 0.05 96 1013.5
20260505040110 10 165 0.0 0.0 0.00 0.05 0.05 96 1013.6
20260505035607 10 167 0.0 0.0 0.00 0.05 0.05 96 1013.7
20260505035103 10 174 0.0 0.0 0.00 0.05 0.05 96 1013.6
20260505034600 10 175 0.0 0.0 0.00 0.05 0.05 96 1013.9
20260505034056 10 175 0.0 0.0 0.00 0.05 0.05 96 1013.6
20260505033553 10 175 0.0 0.0 0.00 0.05 0.05 96 1013.5
20260505033052 10 175 0.0 0.0 0.00 0.05 0.05 96 1013.3
20260505032550 10 171 0.0 0.0 0.00 0.05 0.05 96 1013.4
20260505032045 10 167 0.0 0.0 0.00 0.05 0.05 96 1013.4
20260505031543 10 166 0.0 0.0 0.00 0.05 0.05 96 1013.4
20260505031039 10 174 0.0 0.0 0.00 0.05 0.05 96 1013.3
20260505030536 10 174 0.0 0.0 0.00 0.05 0.05 95 1013.4
20260505030032 10 174 0.0 0.0 0.00 0.05 0.05 96 1013.3
20260505025528 10 172 0.0 0.0 0.00 0.05 0.05 95 1013.3
20260505025027 10 169 0.0 0.0 0.00 0.05 0.05 95 1013.3
20260505024524 10 169 0.0 0.0 0.00 0.05 0.05 96 1013.3
20260505024021 11 169 0.0 0.0 0.00 0.05 0.05 95 1013.4
20260505023518 11 174 0.0 0.0 0.00 0.05 0.05 95 1013.4
20260505023016 11 174 0.0 0.0 0.00 0.05 0.05 95 1013.3
20260505022513 11 175 0.0 0.0 0.00 0.05 0.05 96 1013.2
20260505022010 11 175 0.0 0.0 0.00 0.05 0.05 95 1013.4
20260505021506 11 175 0.0 0.0 0.00 0.05 0.05 95 1013.3
20260505021003 11 175 0.0 0.0 0.00 0.05 0.05 95 1013.3
20260505020458 11 174 0.0 0.0 0.00 0.05 0.05 95 1013.2
20260505015954 11 170 0.0 0.0 0.00 0.05 0.05 95 1013.2
20260505015452 11 328 0.0 0.0 0.00 0.05 0.05 95 1013.3
20260505014949 11 328 0.0 0.0 0.00 0.05 0.05 94 1013.0
20260505014446 11 328 0.0 0.0 0.00 0.05 0.05 94 1013.1
20260505013943 11 327 0.0 0.0 0.00 0.05 0.05 94 1013.1
20260505013440 11 327 0.0 0.0 0.00 0.05 0.05 94 1013.2
20260505012937 11 327 0.0 0.0 0.00 0.05 0.05 94 1013.2
20260505012435 11 327 0.0 0.0 0.00 0.05 0.05 94 1013.3
20260505011932 11 328 0.0 0.0 0.00 0.05 0.05 94 1013.6
20260505011428 11 328 0.0 0.0 0.00 0.05 0.05 94 1013.5
20260505010925 11 327 0.0 0.0 0.00 0.05 0.05 93 1013.6
20260505010421 11 328 0.0 0.0 0.00 0.05 0.05 93 1013.6
20260505005917 11 327 0.0 0.0 0.00 0.05 0.05 93 1013.6
20260505005414 11 328 0.0 0.0 0.00 0.05 0.05 93 1013.7
20260505004911 11 327 0.0 0.0 0.00 0.05 0.05 93 1013.7
20260505004408 11 327 0.0 0.0 0.00 0.05 0.05 93 1013.8
20260505003905 11 328 0.0 0.0 0.00 0.05 0.05 92 1013.9
20260505003402 11 328 0.0 0.0 0.00 0.05 0.05 92 1013.8
20260505002858 12 328 0.0 0.0 0.00 0.05 0.05 92 1013.6
20260505002354 12 328 0.0 0.0 0.00 0.05 0.05 92 1013.8
20260505001853 12 328 0.0 0.0 0.00 0.05 0.05 92 1013.8
20260505001350 12 329 0.0 0.0 0.00 0.05 0.05 91 1013.7
20260505000847 12 328 0.0 0.0 0.00 0.05 0.05 91 1013.7
20260505000345 12 328 0.0 0.0 0.00 0.05 0.05 91 1013.7
20260504235841 12 328 0.0 0.0 0.00 0.05 0.05 91 1013.8
20260504235338 12 334 1.6 3.2 0.00 0.05 0.05 91 1014.0
20260504234835 12 319 0.0 0.0 0.00 0.05 0.05 90 1013.8
20260504234333 12 314 3.2 4.8 0.00 0.05 0.05 90 1013.8
20260504233829 12 25 1.6 1.6 0.00 0.05 0.05 90 1013.7
20260504233325 12 82 1.6 3.2 0.00 0.05 0.05 90 1013.7
20260504232822 12 340 3.2 3.2 0.00 0.05 0.05 90 1013.7
20260504232319 12 344 1.6 3.2 0.00 0.05 0.05 90 1013.8
20260504231815 12 187 0.0 0.0 0.00 0.05 0.05 90 1013.8
20260504231312 12 186 0.0 0.0 0.00 0.05 0.05 90 1013.6
20260504230808 12 298 0.0 0.0 0.00 0.05 0.05 90 1013.7
20260504230306 12 1 1.6 1.6 0.00 0.05 0.05 90 1013.7